Weather Roundup
Issued by NWS Corpus Christi, TX

Home | Current Version | Previous Version | Text Only | Print | Product List | Glossary On
Versions: 1 2 3 4 5 6 7 8 9 10 11 12 13 14 15 16 17 18 19 20 21 22 23 24 25 26 27 28 29 30 31 32 33 34 35 36 37 38 39 40 41 42 43 44 45 46 47 48 49 50
000
ASUS44 KCRP 221810
HRRCRP

SOUTH TEXAS REGIONAL WEATHER ROUNDUP
NATIONAL WEATHER SERVICE CORPUS CHRISTI TX
1200 PM CST MON DEC 22 2014


TXZ229>244-221900-
...CORPUS CHRISTI AREA OBSERVATIONS...

CITY           SKY/WX    TMP DP  RH WIND       PRES   REMARKS
CORPUS CHRISTI CLOUDY    66  61  84 SW12      29.76F
NAS CORPUS CHR CLOUDY    66  62  87 SW14      29.76F
ROCKPORT       CLOUDY    67  60  78 SW8G16    29.76F
KINGSVILLE NAS CLOUDY    68  63  84 SW14      29.76F
ALICE          CLOUDY    65  58  78 SW9       29.76F
FALFURRIAS     CLOUDY    66  59  79 S7        29.76F
$$

...VICTORIA AREA OBSERVATIONS...

CITY           SKY/WX    TMP DP  RH WIND       PRES   REMARKS
VICTORIA       MOSUNNY   69  60  73 SW13      29.73F
BEEVILLE       FAIR      66  59  77 SW10      29.74F
PLEASANTON     PTSUNNY   65  55  70 W6        29.76F
SAN ANTONIO    CLOUDY    63  53  70 W9        29.73F
$$

...LAREDO AREA OBSERVATIONS...

CITY           SKY/WX    TMP DP  RH WIND       PRES   REMARKS
LAREDO         SUNNY     66  55  68 CALM      29.78F
COTULLA        MOSUNNY   66  54  65 VRB6      29.77F
DEL RIO        CLOUDY    55  52  89 CALM      29.77F
MCALLEN        CLOUDY    66  60  81 SW6       29.77F
HEBBRONVILLE   SUNNY     68  55  64 CALM      29.77F
$$

...OTHER TEXAS OBSERVATIONS...

CITY           SKY/WX    TMP DP  RH WIND       PRES   REMARKS
BROWNSVILLE    SUNNY     75  63  66 S22G30    29.75F
HOUSTON        PTSUNNY   70  59  68 SW15G23   29.71F
COL. STATION   PTSUNNY   67  55  65 S16       29.67F
AUSTIN         PTSUNNY   67  55  65 S12       29.68F
WACO           MOSUNNY   69  45  41 W16       29.62F
FORT WORTH     MOSUNNY   63  42  46 W10       29.59F
WICHITA FALLS  MOSUNNY   56  42  59 N15       29.64S
LUBBOCK        CLOUDY    53  32  44 N13G21    29.75F
EL PASO        MOSUNNY   61  33  35 VRB6      29.90F
$$

...MARINE OBSERVATIONS...

STATION/POSITION TIME  SKY/WX   TEMP    WIND        PRES    VSBY  WAVE   SWELL
                                AIR SEA DIR/SP/G                  HT/PER HT/PER
                 (UTC)          (F)     (DEG/KT/KT) (MB)    (MI)  (FT/S) (FT/S)
PORT ARANSAS     1800            64 63  200/ 12/ 13 1007.9F
BUOY 90 E PORT A 1800            71 72  230/ 16/ 17 1007.9F         3/ 4
BUOY 45 SE BAFFI 1800            67 73  220/ 14/ 16 1007.6F         3/ 7   2/ 7
BUOY 200 E PT IS 1800            74 74  200/ 14/ 16 1009.1F         4/ 5   2/ 7
BUOY 15 E GALVES 1800            65 64  230/ 14/ 16 1006.6F         2/ 4
$$


USA.gov is the U.S. government's official web portal to all federal, state and local government web resources and services.